Time,TemperatureF,DewpointF,PressureIn,WindDirection,WindDirectionDegrees,WindSpeedMPH,WindSpeedGustMPH,Humidity,HourlyPrecipIn,Conditions,Clouds,dailyrainin,SoftwareType,DateUTC
2013-02-05 00:42:00,28.0,28.0,-100.00,East,80,1.0,12.0,99,0.00,,,-99.99,,2013-02-05 05:42:00,
2013-02-05 01:02:00,26.0,25.0,-100.00,NE,45,1.0,12.0,97,0.00,,,-99.99,,2013-02-05 06:02:00,
2013-02-05 01:11:00,28.0,28.0,-100.00,NE,45,0.0,12.0,98,0.00,,,-99.99,,2013-02-05 06:11:00,
2013-02-05 01:22:00,28.0,28.0,-100.00,NE,38,0.0,12.0,98,0.00,,,-99.99,,2013-02-05 06:22:00,
2013-02-05 01:42:00,27.0,27.0,-100.00,East,87,0.0,12.0,98,0.00,,,-99.99,,2013-02-05 06:42:00,
2013-02-05 02:22:00,27.0,27.0,-100.00,East,96,0.0,0.0,98,0.00,,,-99.99,,2013-02-05 07:22:00,
2013-02-05 02:32:00,28.0,28.0,-100.00,ESE,107,0.0,0.0,98,0.00,,,-99.99,,2013-02-05 07:32:00,
2013-02-05 02:42:00,28.0,28.0,-100.00,ESE,121,0.0,0.0,98,0.00,,,-99.99,,2013-02-05 07:42:00,
2013-02-05 02:52:00,28.0,28.0,-100.00,SSE,152,0.0,0.0,98,0.00,,,-99.99,,2013-02-05 07:52:00,
2013-02-05 03:01:00,28.0,28.0,-100.00,SSE,162,0.0,0.0,98,0.00,,,-99.99,,2013-02-05 08:01:00,
2013-02-05 03:22:00,28.0,28.0,-100.00,SE,132,0.0,0.0,98,0.00,,,-99.99,,2013-02-05 08:22:00,
2013-02-05 03:32:00,27.0,27.0,-100.00,SE,144,0.0,0.0,98,0.00,,,-99.99,,2013-02-05 08:32:00,
2013-02-05 04:02:00,28.0,28.0,-100.00,ESE,104,1.0,1.0,99,0.00,,,-99.99,,2013-02-05 09:02:00,
2013-02-05 04:22:00,28.0,28.0,-100.00,East,84,0.0,1.0,98,0.00,,,-99.99,,2013-02-05 09:22:00,
2013-02-05 04:32:00,28.0,28.0,-100.00,ESE,107,1.0,1.0,99,0.00,,,-99.99,,2013-02-05 09:32:00,
2013-02-05 05:02:00,28.0,28.0,-100.00,SE,144,0.0,1.0,99,0.00,,,-99.99,,2013-02-05 10:02:00,
2013-02-05 05:11:00,28.0,28.0,-100.00,SE,124,0.0,1.0,99,0.00,,,-99.99,,2013-02-05 10:11:00,
2013-02-05 05:32:00,28.0,28.0,-100.00,South,170,2.0,2.0,99,0.00,,,-99.99,,2013-02-05 10:32:00,
2013-02-05 06:11:00,23.0,23.0,-100.00,SSW,200,2.0,4.0,99,0.00,,,-99.99,,2013-02-05 11:11:00,
2013-02-05 07:02:00,25.0,25.0,-100.00,SW,224,0.0,4.0,98,0.00,,,-99.99,,2013-02-05 12:02:00,
2013-02-05 08:22:00,23.0,23.0,-100.00,SW,231,0.0,4.0,98,0.00,,,-99.99,,2013-02-05 13:22:00,
2013-02-05 09:01:00,27.0,27.0,-100.00,SSW,193,1.0,4.0,98,0.00,,,-99.99,,2013-02-05 14:01:00,
2013-02-05 09:12:00,25.0,25.0,-100.00,SSE,163,0.0,4.0,98,0.00,,,-99.99,,2013-02-05 14:12:00,
2013-02-05 10:02:00,28.0,28.0,-100.00,SE,141,0.0,4.0,97,0.00,,,-99.99,,2013-02-05 15:02:00,
2013-02-05 10:11:00,28.0,28.0,-100.00,SE,128,0.0,4.0,97,0.00,,,-99.99,,2013-02-05 15:11:00,
2013-02-05 10:22:00,28.0,27.0,-100.00,South,179,1.0,4.0,95,0.00,,,-99.99,,2013-02-05 15:22:00,
2013-02-05 10:32:00,28.0,28.0,-100.00,SW,228,0.0,4.0,95,0.00,,,-99.99,,2013-02-05 15:32:00,
2013-02-05 10:42:00,28.0,28.0,-100.00,South,169,0.0,4.0,94,0.00,,,-99.99,,2013-02-05 15:42:00,
2013-02-05 10:52:00,28.0,28.0,-100.00,South,182,1.0,4.0,95,0.00,,,-99.99,,2013-02-05 15:52:00,
2013-02-05 11:01:00,28.0,28.0,-100.00,South,183,1.0,4.0,95,0.00,,,-99.99,,2013-02-05 16:01:00,
2013-02-05 11:22:00,29.0,28.0,-100.00,SE,136,1.0,4.0,94,0.00,,,-99.99,,2013-02-05 16:22:00,
2013-02-05 11:32:00,29.0,27.0,-100.00,East,80,1.0,4.0,90,0.00,,,-99.99,,2013-02-05 16:32:00,
2013-02-05 11:42:00,29.0,27.0,-100.00,SE,131,1.0,4.0,90,0.00,,,-99.99,,2013-02-05 16:42:00,
2013-02-05 11:52:00,28.0,27.0,-100.00,ENE,70,2.0,4.0,89,0.00,,,-99.99,,2013-02-05 16:52:00,
2013-02-05 12:01:00,29.0,28.0,-100.00,East,81,1.0,4.0,89,0.00,,,-99.99,,2013-02-05 17:01:00,
2013-02-05 12:12:00,29.0,27.0,-100.00,East,79,1.0,4.0,90,0.00,,,-99.99,,2013-02-05 17:12:00,
2013-02-05 12:22:00,28.0,27.0,-100.00,ENE,76,3.0,4.0,91,0.00,,,-99.99,,2013-02-05 17:22:00,
2013-02-05 12:32:00,29.0,27.0,-100.00,East,96,2.0,4.0,91,0.00,,,-99.99,,2013-02-05 17:32:00,
2013-02-05 12:42:00,29.0,27.0,-100.00,SE,139,4.0,4.0,90,0.00,,,-99.99,,2013-02-05 17:42:00,
2013-02-05 12:52:00,28.0,27.0,-100.00,SE,136,2.0,4.0,89,0.00,,,-99.99,,2013-02-05 17:52:00,
2013-02-05 13:02:00,30.0,28.0,-100.00,SE,146,2.0,4.0,88,0.00,,,-99.99,,2013-02-05 18:02:00,
2013-02-05 13:11:00,31.0,28.0,-100.00,ESE,108,2.0,4.0,88,0.00,,,-99.99,,2013-02-05 18:11:00,
2013-02-05 13:22:00,29.0,27.0,-100.00,SE,136,4.0,4.0,86,0.00,,,-99.99,,2013-02-05 18:22:00,
2013-02-05 13:32:00,27.0,23.0,-100.00,SSE,148,4.0,4.0,85,0.00,,,-99.99,,2013-02-05 18:32:00,
2013-02-05 13:42:00,29.0,27.0,-100.00,SE,146,5.0,6.0,88,0.00,,,-99.99,,2013-02-05 18:42:00,
2013-02-05 13:52:00,28.0,25.0,-100.00,SE,128,3.0,6.0,86,0.00,,,-99.99,,2013-02-05 18:52:00,
2013-02-05 14:02:00,29.0,27.0,-100.00,East,90,4.0,6.0,85,0.00,,,-99.99,,2013-02-05 19:02:00,
2013-02-05 14:11:00,30.0,27.0,-100.00,ESE,107,4.0,6.0,82,0.00,,,-99.99,,2013-02-05 19:11:00,
2013-02-05 14:22:00,29.0,25.0,-100.00,SE,139,4.0,6.0,82,0.00,,,-99.99,,2013-02-05 19:22:00,
2013-02-05 14:32:00,28.0,25.0,-100.00,ESE,107,3.0,6.0,82,0.00,,,-99.99,,2013-02-05 19:32:00,
2013-02-05 14:42:00,29.0,25.0,-100.00,SSE,151,3.0,6.0,81,0.00,,,-99.99,,2013-02-05 19:42:00,
2013-02-05 14:52:00,32.0,27.0,-100.00,ESE,107,2.0,6.0,77,0.00,,,-99.99,,2013-02-05 19:52:00,
2013-02-05 15:02:00,31.0,27.0,-100.00,East,86,2.0,6.0,78,0.00,,,-99.99,,2013-02-05 20:02:00,
2013-02-05 15:11:00,31.0,25.0,-100.00,East,96,4.0,6.0,76,0.00,,,-99.99,,2013-02-05 20:11:00,
2013-02-05 15:22:00,30.0,25.0,-100.00,East,91,7.0,10.0,76,0.00,,,-99.99,,2013-02-05 20:22:00,
2013-02-05 15:32:00,31.0,25.0,-100.00,ENE,77,7.0,10.0,77,0.00,,,-99.99,,2013-02-05 20:32:00,
2013-02-05 15:42:00,31.0,25.0,-100.00,East,83,6.0,10.0,77,0.00,,,-99.99,,2013-02-05 20:42:00,
2013-02-05 15:52:00,30.0,25.0,-100.00,East,83,6.0,10.0,78,0.00,,,-99.99,,2013-02-05 20:52:00,
2013-02-05 16:02:00,32.0,27.0,-100.00,East,90,8.0,10.0,76,0.00,,,-99.99,,2013-02-05 21:02:00,
2013-02-05 16:11:00,29.0,23.0,-100.00,East,88,9.0,10.0,76,0.00,,,-99.99,,2013-02-05 21:11:00,
2013-02-05 16:22:00,31.0,25.0,-100.00,East,98,7.0,10.0,76,0.00,,,-99.99,,2013-02-05 21:22:00,
2013-02-05 16:32:00,30.0,25.0,-100.00,East,86,7.0,10.0,76,0.00,,,-99.99,,2013-02-05 21:32:00,
2013-02-05 16:42:00,31.0,25.0,-100.00,ENE,77,6.0,10.0,76,0.00,,,-99.99,,2013-02-05 21:42:00,
2013-02-05 16:52:00,30.0,25.0,-100.00,ENE,70,6.0,10.0,76,0.00,,,-99.99,,2013-02-05 21:52:00,
2013-02-05 17:02:00,29.0,23.0,-100.00,ENE,66,7.0,10.0,75,0.00,,,-99.99,,2013-02-05 22:02:00,
2013-02-05 17:12:00,31.0,25.0,-100.00,NE,50,6.0,10.0,75,0.00,,,-99.99,,2013-02-05 22:12:00,
2013-02-05 17:22:00,29.0,23.0,-100.00,ENE,59,6.0,10.0,72,0.00,,,-99.99,,2013-02-05 22:22:00,
2013-02-05 17:32:00,30.0,23.0,-100.00,ENE,57,6.0,10.0,72,0.00,,,-99.99,,2013-02-05 22:32:00,
2013-02-05 17:42:00,28.0,21.0,-100.00,ENE,66,6.0,10.0,71,0.00,,,-99.99,,2013-02-05 22:42:00,
2013-02-05 17:52:00,29.0,23.0,-100.00,ENE,60,5.0,10.0,72,0.00,,,-99.99,,2013-02-05 22:52:00,
2013-02-05 18:02:00,28.0,21.0,-100.00,ENE,62,5.0,10.0,71,0.00,,,-99.99,,2013-02-05 23:02:00,
2013-02-05 18:11:00,28.0,19.0,-100.00,ENE,70,6.0,10.0,71,0.00,,,-99.99,,2013-02-05 23:11:00,
2013-02-05 18:22:00,28.0,19.0,-100.00,East,79,5.0,10.0,68,0.00,,,-99.99,,2013-02-05 23:22:00,
2013-02-05 18:32:00,28.0,19.0,-100.00,NE,55,4.0,10.0,69,0.00,,,-99.99,,2013-02-05 23:32:00,
2013-02-05 18:42:00,28.0,19.0,-100.00,ENE,69,4.0,10.0,69,0.00,,,-99.99,,2013-02-05 23:42:00,
2013-02-05 18:52:00,28.0,21.0,-100.00,ENE,60,3.0,10.0,71,0.00,,,-99.99,,2013-02-05 23:52:00,
2013-02-05 19:02:00,28.0,21.0,-100.00,East,93,2.0,10.0,75,0.00,,,-99.99,,2013-02-06 00:02:00,
2013-02-05 19:12:00,30.0,23.0,-100.00,ENE,60,2.0,10.0,75,0.55,,,-99.99,,2013-02-06 00:12:00,
2013-02-05 19:22:00,27.0,23.0,-100.00,NE,50,2.0,10.0,81,0.55,,,-99.99,,2013-02-06 00:22:00,
2013-02-05 19:32:00,26.0,25.0,-100.00,NE,39,2.0,10.0,88,1.14,,,-99.99,,2013-02-06 00:32:00,
2013-02-05 19:42:00,26.0,25.0,-100.00,NE,36,2.0,10.0,91,0.55,,,-99.99,,2013-02-06 00:42:00,
2013-02-05 19:52:00,27.0,27.0,-100.00,NNE,32,2.0,10.0,93,0.00,,,-99.99,,2013-02-06 00:52:00,
2013-02-05 20:02:00,27.0,27.0,-100.00,NNE,21,2.0,10.0,95,13.62,,,-99.99,,2013-02-06 01:02:00,
2013-02-05 20:12:00,29.0,28.0,-100.00,NE,36,2.0,10.0,97,0.55,,,-99.99,,2013-02-06 01:12:00,
2013-02-05 20:32:00,27.0,27.0,-100.00,NNE,12,2.0,10.0,98,1.69,,,-99.99,,2013-02-06 01:32:00,
2013-02-05 21:22:00,27.0,27.0,-100.00,NNE,15,1.0,10.0,98,0.00,,,-99.99,,2013-02-06 02:22:00,
2013-02-05 21:42:00,28.0,28.0,-100.00,NE,39,2.0,10.0,98,3.39,,,-99.99,,2013-02-06 02:42:00,
2013-02-05 21:52:00,28.0,28.0,-100.00,ENE,72,2.0,10.0,98,30.63,,,-99.99,,2013-02-06 02:52:00,
2013-02-05 22:03:00,28.0,28.0,-100.00,NE,45,2.0,10.0,98,10.20,,,-99.99,,2013-02-06 03:03:00,
2013-02-05 22:12:00,28.0,28.0,-100.00,NE,45,2.0,10.0,99,0.55,,,-99.99,,2013-02-06 03:12:00,
2013-02-05 22:22:00,28.0,28.0,-100.00,NE,56,2.0,10.0,99,0.00,,,-99.99,,2013-02-06 03:22:00,
2013-02-05 22:42:00,25.0,25.0,-100.00,NE,35,2.0,10.0,100,0.00,,,-99.99,,2013-02-06 03:42:00,
2013-02-05 22:52:00,28.0,28.0,-100.00,NE,55,2.0,10.0,100,0.00,,,-99.99,,2013-02-06 03:52:00,
2013-02-05 23:22:00,28.0,28.0,-100.00,ENE,76,1.0,10.0,100,0.00,,,-99.99,,2013-02-06 04:22:00,